YAOGAN-4

Last updated on Sat Oct 18 2025 00:02:32 GMT+0000 (Coordinated Universal Time)

1 33446U 08061A 25290.38252815 .00001979 00000+0 25302-3 0 9997 2 33446 97.9099 221.0723 0015436 136.6941 223.5488 14.82427079909689
UTC large
Height (km)
Speed (km/s)
/
Latitude / Longitude
Inclination (degrees)
Orbital Period (minutes)
Azimuth
Elevation
Range (km)
Doppler Factor

Next 0 passes for location: London (51.5072 / 0.1276)

Sorry there are no passes over London.